Regional Weather Roundup
Issued by NWS

Home | Current Version | Previous Version | Graphics & Text | Print | Product List | Glossary On
Versions: 1 2 3 4 5 6 7 8 9 10 11 12 13 14 15 16 17 18 19 20 21 22 23 24 25 26 27 28 29 30 31 32 33 34 35 36 37 38 39 40 41 42 43 44 45 46 47 48 49 50
000
ASUS43 KDMX 010103
RWRIA

WEATHER ROUNDUP FOR IOWA
NATIONAL WEATHER SERVICE DES MOINES IA
800 PM CDT TUE MAY 31 2016

NOTE: "FAIR" INDICATES FEW OR NO CLOUDS BELOW 12,000 FEET WITH NO
SIGNIFICANT WEATHER AND/OR OBSTRUCTIONS TO VISIBILITY.

* - THESE STATIONS ARE NOT NWS STATIONS...THUS NOT UNDER NWS
QUALITY CONTROL.  THEY ALSO DO NOT REPORT WEATHER SUCH
AS PRECIPITATION OR FOG.

IAZ001>003-012>014-020>022-031>034-043>046-010200-
   NORTHWEST IOWA

CITY           SKY/WX    TMP DP  RH WIND       PRES   REMARKS
CARROLL *      CLOUDY    72  52  49 VRB6      29.91S
CHEROKEE *     CLEAR     70  50  49 W5        29.91R
DENISON *      CLEAR     72  52  49 NW3       29.91R
LE MARS *      CLEAR     72  52  49 S6        29.91R
ORANGE CITY *  CLEAR     72  50  46 SW3       29.90S
SHELDON *      CLEAR     70  48  46 SW5       29.88S
SIOUX CITY     CLEAR     73  52  47 S5        29.90S
SPENCER        CLEAR     70  50  49 SW6       29.90R
STORM LAKE *   CLEAR     70  52  52 W7        29.93R
$$

IAZ055>058-069>071-079>083-090>094-010200-
   SOUTHWEST IOWA

CITY           SKY/WX    TMP DP  RH WIND       PRES   REMARKS
ATLANTIC *     CLEAR     72  57  60 N6        29.92R
AUDUBON *      CLEAR     70  55  60 CALM      29.93S
CLARINDA *       N/A     75  63  64 MISG      29.93R
COUNCIL BLFS * CLEAR     73  54  49 N3        29.92S
CRESTON *      MOCLDY    70  66  88 E3        29.93S
HARLAN  *      PTCLDY    73  52  46 NW6       29.96R
LAMONI         CLOUDY    69  66  90 NW3       29.91R
RED OAK *      CLOUDY    73  59  60 N7        29.92R
SHENANDOAH *   CLEAR     75  61  60 N7        29.92R
$$

IAZ047>049-059>061-072>074-084-010200-
   CENTRAL IOWA

CITY           SKY/WX    TMP DP  RH WIND       PRES   REMARKS
AMES           CLEAR     69  64  84 CALM      29.90R
ANKENY *         N/A     70  66  88 N5        29.90R
BOONE *        PTCLDY    70  63  78 CALM      29.90R
CHARITON *     CLOUDY    66  64  94 W5        29.90R
DES MOINES     CLOUDY    71  63  75 CALM      29.90R
GRINNELL*      CLOUDY    68  63  83 CALM      29.91S
KNOXVILLE *    PTCLDY    66  63  88 NW6       29.88S
MARSHALLTOWN   CLOUDY    67  64  90 NW7       29.89R
NEWTON *       CLOUDY    68  66  94 NW5       29.90R
PERRY *          N/A     73  63  68 CALM      29.90R
$$

IAZ004>006-015-016-023>025-035-036-010200-
   NORTH CENTRAL IOWA

CITY           SKY/WX    TMP DP  RH WIND       PRES   REMARKS
ALGONA *       CLEAR     72  54  53 W8        29.90R
CLARION *      CLOUDY    70  61  73 CALM      29.90R
ESTHERVILLE    CLEAR     69  51  52 W8        29.89R
FORT DODGE *   CLEAR     72  54  53 W6        29.91R
MASON CITY     CLOUDY    69  60  73 W3        29.90S
FOREST CITY *  CLEAR     68  57  68 CALM      29.89R
WEBSTER CITY * CLEAR     70  59  68 CALM      29.89R
IOWA FALLS *     N/A     70  63  78 CALM      29.90F
$$

IAZ007>011-017>019-026>030-037>042-050>054-066-010200-
   NORTHEAST IOWA

CITY           SKY/WX    TMP DP  RH WIND       PRES   REMARKS
CEDAR RAPIDS   CLOUDY    67  63  87 NW14      29.90R
CHARLES CITY * CLOUDY    66  66 100 CALM      29.90R
CLINTON *      CLOUDY    72  66  81 SE9       29.91S
DECORAH *      LGT RAIN  63  63 100 CALM      29.90F
DUBUQUE        CLOUDY    69  63  81 S9        29.90S
MONTICELLO *   CLOUDY    70  63  78 VRB6G18   29.90R
OELWEIN *      CLOUDY    64 N/A N/A NE5       29.90F
WATERLOO       CLOUDY    65  63  93 E3        29.88F
$$

IAZ064-065-067-068-078-010200-
   EAST CENTRAL IOWA

CITY           SKY/WX    TMP DP  RH WIND       PRES   REMARKS
DAVENPORT      PTCLDY    72  62  71 SE10      29.90S
IOWA CITY      CLOUDY    77  61  57 S5        29.89R
MT. PLEASANT * MOCLDY    79  64  61 S3        29.89R HX  81
MUSCATINE *    CLOUDY    75  63  64 SE5       29.89R
QUAD CITIES    PTCLDY    70  66  87 E3        29.89S
$$

IAZ062-063-075>077-085>089-095>099-010200-
   SOUTHEAST IOWA

CITY           SKY/WX    TMP DP  RH WIND       PRES   REMARKS
BURLINGTON     MOCLDY    76  64  66 S6        29.88S
FAIRFIELD *      N/A    N/A N/A N/A MISG        N/A
FORT MADISON * CLEAR     77  63  61 CALM      29.90R
KEOKUK *       MOCLDY    77  64  65 S3        29.88R
OTTUMWA        LGT RAIN  67  64  90 NW10      29.90R
WASHINGTON *   PTCLDY    75 -35   1 SW3       29.90R
$$

ABBREVIATIONS USED IN REMARKS
   TC - TEMPERATURES IN CELSIUS
  WCI - WIND CHILL INDEX
   HX - HEAT INDEX
  VSB - VISIBILITY
$$




USA.gov is the U.S. government's official web portal to all federal, state and local government web resources and services.